TimeCEST,TemperatureF,Dew PointF,Humidity,Sea Level PressureIn,VisibilityMPH,Wind Direction,Wind SpeedMPH,Gust SpeedMPH,PrecipitationIn,Events,Conditions,WindDirDegrees,DateUTC
12:55 AM,53.6,50.0,88,30.18,-9999.0,NNE,2.3,-,N/A,,Clear,20,2013-04-17 22:55:00
2:00 AM,50,47,88,30.19,9,NW,3.5,,,,,320,2013-04-18 00:00:00
3:55 AM,46.4,42.8,87,30.15,-9999.0,NNW,3.5,-,N/A,,Clear,340,2013-04-18 01:55:00
5:00 AM,46,43,84,30.17,7,NNW,3.5,,,,,340,2013-04-18 03:00:00
5:55 AM,46.4,39.2,76,30.15,-9999.0,North,4.6,-,N/A,,Clear,360,2013-04-18 03:55:00
6:55 AM,46.4,42.8,87,30.15,-9999.0,NNW,2.3,-,N/A,,Clear,330,2013-04-18 04:55:00
7:55 AM,46.4,44.6,93,30.15,-9999.0,North,2.3,-,N/A,,Clear,360,2013-04-18 05:55:00
8:00 AM,46,44,91,30.18,12,North,2.3,,,,Clear,0,2013-04-18 06:00:00
8:55 AM,53.6,48.2,82,30.15,-9999.0,NNW,3.5,-,N/A,,Clear,330,2013-04-18 06:55:00
10:55 AM,66.2,55.4,68,30.15,-9999.0,NW,3.5,-,N/A,,Clear,320,2013-04-18 08:55:00
11:00 AM,66,54,57,30.17,16,NW,3.5,,,,Clear,320,2013-04-18 09:00:00
11:55 AM,71.6,55.4,57,30.15,6.2,NNW,4.6,-,N/A,,Partly Cloudy,340,2013-04-18 09:55:00
12:55 PM,75.2,55.4,50,30.12,6.2,WNW,4.6,-,N/A,,Partly Cloudy,300,2013-04-18 10:55:00
1:55 PM,77.0,51.8,41,30.12,6.2,WNW,4.6,-,N/A,,Partly Cloudy,290,2013-04-18 11:55:00
2:00 PM,77,53,32,30.13,16,WNW,4.6,,,,Scattered Clouds,290,2013-04-18 12:00:00
2:55 PM,80.6,51.8,37,30.09,6.2,South,3.5,-,N/A,,Partly Cloudy,180,2013-04-18 12:55:00
3:55 PM,78.8,53.6,42,30.06,6.2,SSE,11.5,-,N/A,,Partly Cloudy,150,2013-04-18 13:55:00
4:55 PM,77.0,53.6,44,30.06,6.2,SE,10.4,-,N/A,,Partly Cloudy,130,2013-04-18 14:55:00
5:00 PM,78,54,33,30.08,16,SE,10.4,,,,Scattered Clouds,130,2013-04-18 15:00:00
5:55 PM,77.0,53.6,44,30.06,6.2,SSE,6.9,-,N/A,,Partly Cloudy,150,2013-04-18 15:55:00
6:55 PM,73.4,55.4,53,30.06,6.2,NNW,6.9,-,N/A,,Partly Cloudy,330,2013-04-18 16:55:00
7:55 PM,69.8,53.6,56,30.09,6.2,North,5.8,-,N/A,,Scattered Clouds,360,2013-04-18 17:55:00
8:00 PM,70,54,46,30.09,16,North,5.8,,,,Scattered Clouds,0,2013-04-18 18:00:00
8:55 PM,64.4,53.6,68,30.09,-9999.0,North,6.9,-,N/A,,Clear,10,2013-04-18 18:55:00
10:55 PM,59.0,55.4,88,30.09,-9999.0,NNE,4.6,-,N/A,,Clear,20,2013-04-18 20:55:00
11:00 PM,59,56,87,30.11,16,NNE,4.6,,,,,20,2013-04-18 21:00:00